This is the latest recevied weather packets stored in our database for station/object KL4TQ. If no packets are shown the sender has not sent any weather packets the latest 10 day(s).
| Time | Temp. | Humidity | Pressure | Rain* | Wind** | Luminosity | Snow |
|---|---|---|---|---|---|---|---|
| 1777777569 | 4.44° C | 70% | 857 hPa | 0 mm | - | 92 W/m² | - |
| 1777777268 | 4.44° C | 68% | 857 hPa | 0 mm | - | 92 W/m² | - |
| 1777776968 | 5° C | 66% | 857 hPa | 0 mm | - | 102 W/m² | - |
| 1777776668 | 5° C | 65% | 857 hPa | 0 mm | - | 113 W/m² | - |
| 1777776368 | 5° C | 67% | 857 hPa | 0 mm | - | 120 W/m² | - |
| 1777776069 | 5° C | 68% | 857 hPa | 0 mm | - | 119 W/m² | - |
| 1777775770 | 5° C | 68% | 857 hPa | 0 mm | - | 149 W/m² | - |
| 1777775468 | 4.44° C | 69% | 857 hPa | 0 mm | - | 191 W/m² | - |
| 1777775169 | 4.44° C | 70% | 857 hPa | 0 mm | - | 180 W/m² | - |
| 1777774868 | 4.44° C | 70% | 857 hPa | 0 mm | - | 125 W/m² | - |
| 1777774570 | 5° C | 70% | 857 hPa | 0 mm | - | 118 W/m² | - |
| 1777774269 | 5° C | 67% | 857 hPa | 0 mm | - | 150 W/m² | - |
| 1777773968 | 5° C | 67% | 857 hPa | 0 mm | - | 205 W/m² | - |
| 1777773668 | 5° C | 68% | 857 hPa | 0 mm | - | 232 W/m² | - |
| 1777773369 | 5° C | 69% | 857 hPa | 0 mm | - | 248 W/m² | - |
| 1777773069 | 5° C | 71% | 857 hPa | 0 mm | - | 237 W/m² | - |
| 1777772774 | 5° C | 71% | 857 hPa | 0 mm | - | 187 W/m² | - |
| 1777772468 | 5° C | 70% | 857 hPa | 0 mm | - | 194 W/m² | - |
| 1777772168 | 5° C | 69% | 857 hPa | 0 mm | - | 212 W/m² | - |
| 1777771868 | 5.56° C | 67% | 857 hPa | 0 mm | - | 243 W/m² | - |
| 1777771568 | 5.56° C | 65% | 857 hPa | 0 mm | - | 180 W/m² | - |
| 1777771268 | 5.56° C | 63% | 857 hPa | 0 mm | - | 168 W/m² | - |
| 1777770968 | 6.11° C | 62% | 857 hPa | 0 mm | - | 226 W/m² | - |
| 1777770668 | 6.11° C | 61% | 857 hPa | 0 mm | - | 300 W/m² | - |
| 1777770368 | 6.67° C | 61% | 857 hPa | 0 mm | - | 290 W/m² | - |
* Rain latest hour (hover to see other rain measurements)
** Current wind speed in m/s (hover to see current wind gust speed)